Showing default

LEMUR-2-FINNIAN, 66782

Orbit data source: Space-Track

LEMUR-2-FINNIAN, 66782 is an American payload satellite in SSO that was launched on Fri, 28 Nov 2025 UTC via an FALCON 9 launch vehicle from the Air Force Western Test Range (AFWTR). Payload-class satellites include a variety of spacecraft equipped with specific instruments for various scientific and technological missions. These include communications satellites like Starlink; space stations such as the ISS; scientific satellites like the Hubble; Earth observation satellites from companies like Planet Labs, Umbra, and HawkEye 360; GPS; miniature CubeSats for education and research; and military/defense satellites.

Loading next visibility...
Identifier
66782, 2025-276DX
Orbit
SSO
Country
Flag of USUS
Related business
Manufacturer
Spire/Glasgow
Mission
Operational spacecraft
Bus & Motor
CUBESAT 4U, Unknown motor
Mass
5 kg wet, 5 kg dry
Launch date (UTC)
2025-11-28 (7 months ago)
Launch vehicle
FALCON 9
Launch site
Air Force Western Test Range (AFWTR)
Object type
Payload
Rocket body
Debris
Shape & HBR
Unknown shape, 0.2 m
Radar Cross Section
Medium (>0.1 m² and <1 m²)

Expand to show TLE details & history
Last TLE update: 1 day ago

TLE from 1 day ago
0 LEMUR-2-FINNIAN
1 66782U 25276DX  26170.74792521  .00005594  00000-0  44925-3 0  9994
2 66782  97.5291 241.6582 0008909  81.8955 278.3279 15.00405471 20382
Epoch: 2026-06-19T17:57Z
TLE epoch observation values (Epoch: 2026-06-19T17:57:00.738Z)
Latitude
-0.00005°
Longitude
64.43268°
Altitude
567.814 km
Speed
7.578 km/s
True Right ascension
16h 06m 37s
True Declination
0° 00' 00"
Sunlit
Object was in full shadow at epoch
Visualization orbit readout
Latitude
Unknown
Longitude
Unknown
Altitude
Unknown
Speed
Unknown
Apparent Right ascension
Unknown
Apparent Declination
Unknown
Sunlit
N/A
Visualization observer readout
Local Sidereal Time
08:42:28
Azimuth
Unknown
Elevation
Unknown
Doppler factor
Unknown
Orbital elements
Apogee altitude
568.826 km
Perigee altitude
556.459 km
Semi-major axis
6,940.779 km
Eccentricity
0.00089
Inclination
97.5291°
RAAN
241.6582°
Arg. of periapsis
81.8955°
True anomaly
278.22687°
Mean anomaly
278.3279°
Eccentric anomaly
278.27739°
Mean motion
3.75345 °/min
Orbital period
95.91 mins
BSTAR
0.00044925
Loading maneuver chart data...
Computing Atmospheric mass density...
Loading historical data...
Loading historical data...
Loading historical data...
Loading historical data...
Loading historical data...
Loading historical data...
Loading historical data...

Documentation

Showing up to 5 results
|